This is the latest recevied weather packets stored in our database for station/object OE6ACM-10. If no packets are shown the sender has not sent any weather packets the latest 1 day(s).
| Time | Temp. | Humidity | Pressure | Rain* | Wind** | Luminosity | Snow |
|---|---|---|---|---|---|---|---|
| 1778068062 | 34.44° C | 79% | 918.3 hPa | - | - | - | - |
| 1778067762 | 33.33° C | 74% | 918.4 hPa | - | - | - | - |
| 1778067462 | 33.89° C | 71% | 918.2 hPa | - | - | - | - |
| 1778066562 | 33.33° C | 80% | 918.6 hPa | - | - | - | - |
| 1778066262 | 32.78° C | 80% | 918.7 hPa | - | - | - | - |
| 1778065962 | 32.78° C | 78% | 918.8 hPa | - | - | - | - |
| 1778065662 | 31.67° C | 79% | 918.7 hPa | - | - | - | - |
| 1778064762 | 32.22° C | 69% | 918.9 hPa | - | - | - | - |
| 1778064462 | 32.78° C | 76% | 918.8 hPa | - | - | - | - |
| 1778064162 | 32.22° C | 67% | 918.8 hPa | - | - | - | - |
| 1778063862 | 31.67° C | 65% | 918.9 hPa | - | - | - | - |
| 1778063562 | 32.22° C | 64% | 918.9 hPa | - | - | - | - |
| 1778063262 | 32.22° C | 67% | 919 hPa | - | - | - | - |
| 1778062962 | 31.67° C | 68% | 919 hPa | - | - | - | - |
| 1778062662 | 31.67° C | 62% | 919 hPa | - | - | - | - |
| 1778062362 | 32.78° C | 61% | 919 hPa | - | - | - | - |
| 1778062062 | 32.78° C | 62% | 919.1 hPa | - | - | - | - |
| 1778061762 | 33.33° C | 66% | 919.1 hPa | - | - | - | - |
| 1778061462 | 32.78° C | 65% | 919.1 hPa | - | - | - | - |
| 1778061162 | 32.78° C | 66% | 919.1 hPa | - | - | - | - |
| 1778060862 | 31.67° C | 64% | 919.2 hPa | - | - | - | - |
| 1778060562 | 30.56° C | 65% | 919.1 hPa | - | - | - | - |
| 1778060262 | 30.56° C | 67% | 919.1 hPa | - | - | - | - |
| 1778059962 | 30.56° C | 72% | 919.2 hPa | - | - | - | - |
| 1778059662 | 30° C | 78% | 919.1 hPa | - | - | - | - |
* Rain since midnight (hover to see other rain measurements)
** Current wind speed in m/s (hover to see current wind gust speed)